Wind_Speed
15 16 13 11 12 11 12 11 12 9 8 9 8 9 8 9 7 7 7 7 8 8 8 8 8 8 8 7 6 6 6 5 6 6 4 4 4 4 4 4 5 6 5
20 16 14 14 15 11 12 10 10 11 11 9 8 9 7 6 8 6 6 6 6 6 7 7 8 8 8 8 8 8 7 6 6 6 5 5 5 3 2 3 3 3 4
21 18 16 16 14 12 11 10 10 10 10 9 8 7 7 8 8 8 8 6 7 8 8 8 8 9 9 9 9 9 9 9 8 7 7 6 7 5 4 4 4 3 3
21 19 18 17 15 12 11 11 10 10 9 8 7 6 7 8 8 8 8 6 7 8 8 9 10 10 10 10 10 10 10 10 9 9 9 8 7 6 7 7 6 6 5
21 19 18 16 15 13 11 9 9 8 7 6 5 5 6 6 7 8 9 9 8 8 9 10 11 11 11 10 11 12 12 13 12 11 10 10 10 8 10 11 9 8 8
21 19 17 15 13 11 10 9 7 6 6 5 5 6 6 7 8 9 9 10 11 10 11 11 12 12 13 13 14 15 15 13 13 14 13 11 11 11 10 13 13 12 10
22 17 15 14 13 11 9 7 6 6 5 5 5 6 7 8 8 10 11 12 12 13 13 13 13 13 14 14 15 15 16 17 16 14 15 15 14 13 13 14 16 15 13
24 18 14 12 11 10 8 6 6 5 4 5 5 8 8 8 8 9 10 11 12 12 13 14 14 14 13 14 15 15 16 15 16 17 17 17 17 17 17 18 19 18 15
22 18 14 12 10 9 7 5 5 5 5 5 6 8 8 8 8 8 10 11 12 12 14 14 14 14 14 14 14 14 13 13 14 15 15 15 16 18 19 19 17 20 18
20 18 15 13 10 8 6 5 4 4 5 6 8 9 8 8 8 9 10 10 11 13 13 12 12 14 15 15 15 15 15 15 15 13 10 11 12 14 16 16 18 18 21
18 16 14 13 11 8 5 4 3 4 5 6 8 9 10 10 10 10 11 12 12 12 12 13 13 14 16 17 16 16 16 15 14 12 10 10 11 13 13 13 14 12 11
19 16 13 11 10 7 4 3 3 4 5 7 8 9 10 11 12 12 12 13 12 12 12 13 14 16 16 16 15 14 14 13 11 11 11 11 11 11 10 10 5 4 4
20 16 13 11 8 6 4 2 2 4 4 7 8 9 11 12 13 13 14 14 14 14 15 15 14 14 14 15 15 15 13 12 12 11 10 11 12 10 9 7 6 6 7
20 16 13 10 8 6 4 3 3 3 4 6 8 9 11 12 14 14 15 15 14 15 16 15 15 15 15 15 15 15 13 12 11 10 9 7 7 7 8 8 8 7 8
19 17 13 11 8 6 4 4 2 2 4 6 7 9 10 12 15 14 15 14 14 15 15 16 15 15 17 17 16 14 14 12 11 10 7 7 8 8 7 8 9 8 7
19 16 14 11 8 6 5 3 2 2 5 5 7 9 10 13 14 14 15 14 14 14 14 14 16 16 17 18 17 15 14 11 9 7 8 8 7 6 7 6 6 5 4
20 16 15 12 9 7 5 3 1 2 4 4 7 8 11 14 14 14 14 13 14 14 13 14 14 17 19 19 18 14 11 10 8 8 9 8 8 8 8 6 5 6 6
19 18 15 12 10 8 5 3 1 1 3 4 7 9 10 12 13 14 14 13 13 12 13 14 16 19 20 22 21 16 8 6 7 8 8 10 10 8 8 6 5 5 7
21 19 17 14 11 9 6 4 2 1 3 5 7 8 10 11 12 14 13 13 13 12 13 15 16 19 22 25 19 13 10 8 7 8 10 10 11 9 7 7 7 5 6
20 18 16 14 12 9 7 5 3 3 3 4 6 7 8 10 11 12 12 12 14 12 13 14 15 17 20 25 16 11 10 8 7 9 11 10 11 10 8 7 6 6 7
19 17 16 15 12 9 7 5 4 3 3 4 6 7 8 9 10 11 11 12 12 13 13 13 15 16 19 24 13 7 6 9 9 9 12 12 11 11 9 7 6 6 9
20 18 16 14 10 9 6 4 3 3 4 5 5 7 8 9 10 11 11 11 11 11 11 10 11 13 12 17 10 3 4 3 7 3 9 17 10 11 9 7 5 6 9
16 16 14 12 10 8 7 5 4 5 5 4 6 10 11 12 11 11 11 10 9 9 10 9 8 10 10 11 14 8 3 2 7 5 7 13 11 14 13 4 2 4 7
14 12 11 10 9 8 8 6 5 5 5 5 11 13 14 13 12 10 10 10 9 8 9 9 7 7 8 9 8 8 6 6 2 4 6 8 16 14 18 6 1 3 5
10 8 8 8 8 7 6 6 6 5 6 8 11 13 13 11 10 9 9 9 9 9 9 8 7 5 6 7 7 6 6 7 5 3 5 11 21 17 20 8 1 2 6
8 7 8 8 7 6 6 6 6 6 7 10 11 11 12 12 11 9 9 9 9 9 10 9 8 7 6 6 7 7 7 4 6 3 3 9 11 12 17 7 6 6 8
Wind_Direction
171 161 165 153 136 116 130 103 99 88 102 82 73 72 62 51 51 44 43 42 39 36 31 27 25 25 24 20 15 10 4 2 3 5 16 17 17 21 28 7 27 45 47
160 159 159 148 139 136 126 110 107 97 98 79 81 74 74 59 36 31 25 26 28 23 17 11 7 5 3 2 1 357 350 342 337 339 344 340 321 300 307 319 341 12 21
152 154 149 144 140 134 126 113 104 99 95 86 80 69 58 51 35 29 23 19 3 359 355 352 346 344 344 344 344 342 340 336 332 322 311 320 335 264 262 284 289 300 323
149 149 145 142 138 133 123 112 101 86 78 74 73 63 47 37 31 17 16 12 0 355 344 342 333 328 325 326 327 327 325 323 322 318 308 302 311 299 260 263 279 278 272
144 144 141 137 134 129 117 105 105 107 94 75 54 36 20 10 6 4 3 357 348 340 332 330 331 336 342 328 317 311 310 309 311 311 308 302 294 301 270 252 266 265 260
140 141 137 133 132 127 123 121 107 89 74 60 41 24 11 4 359 357 358 353 347 341 334 327 321 320 319 317 314 315 315 322 305 300 301 301 289 287 276 260 261 276 273
139 139 139 135 132 131 126 119 104 90 71 50 28 11 4 0 359 2 2 358 352 348 347 343 336 330 325 321 319 312 304 307 306 301 295 295 293 287 273 270 260 266 265
142 146 144 139 135 131 124 117 102 82 58 38 19 9 7 5 2 1 355 356 354 353 356 353 351 348 345 340 334 325 319 312 306 295 289 290 292 289 282 280 257 252 260
149 147 144 141 137 128 120 111 90 67 46 32 22 11 11 6 358 348 349 346 345 346 345 347 349 348 342 335 333 332 328 322 319 317 286 290 300 293 281 280 286 260 259
148 147 148 147 140 131 124 101 73 55 44 37 30 19 12 2 357 351 347 347 342 339 341 345 341 337 332 328 324 321 320 320 317 323 317 303 317 323 294 284 287 284 267
148 149 152 151 144 140 132 106 72 51 39 30 21 21 13 7 358 350 345 338 337 336 338 336 334 332 328 324 322 321 316 311 316 319 321 318 313 323 329 298 292 292 281
153 154 158 157 154 153 144 119 72 44 43 22 16 11 9 4 0 356 354 350 350 350 348 342 335 331 331 334 333 333 333 327 322 324 321 320 314 317 324 348 333 326 320
160 161 166 164 164 164 148 129 83 56 33 20 9 5 6 1 3 359 3 3 4 3 354 349 349 352 351 346 343 341 337 338 335 329 325 321 313 307 308 318 330 327 322
163 165 167 172 177 178 166 143 104 60 20 18 9 360 3 5 3 4 6 8 9 8 6 7 4 0 355 351 346 342 340 336 336 338 332 337 341 333 310 302 305 310 314
167 173 177 182 186 180 170 155 119 50 16 14 10 4 6 5 3 3 6 10 11 11 12 5 358 355 352 350 347 342 342 339 340 337 341 338 326 328 324 311 304 303 311
178 182 185 188 190 183 176 164 118 36 12 8 16 9 6 4 2 0 6 10 10 7 6 2 358 356 352 345 344 344 341 346 345 356 359 8 7 5 10 351 340 329 345
186 187 193 192 191 191 186 175 109 10 13 23 20 9 6 2 1 358 3 7 8 4 1 359 2 352 347 345 344 349 346 360 27 31 26 26 19 12 10 17 37 15 3
189 196 195 198 201 202 199 199 216 2 9 7 6 2 5 3 360 359 2 6 5 3 2 3 359 359 356 354 355 357 356 53 51 41 35 34 24 28 30 31 29 39 23
198 198 200 203 207 208 207 220 244 299 326 339 349 357 2 0 357 0 2 4 2 360 1 1 3 0 359 356 2 25 59 64 56 45 39 32 28 33 34 46 53 50 43
204 205 208 208 211 211 217 234 255 289 317 328 341 349 352 351 353 358 2 5 3 4 1 4 3 5 2 356 358 37 65 61 66 57 40 36 38 40 45 53 59 46 30
205 208 210 211 212 217 225 246 264 299 327 325 342 345 344 345 347 351 358 2 5 9 4 1 5 3 5 3 360 9 57 70 71 62 41 31 37 43 54 60 64 50 34
205 207 214 216 219 223 238 249 267 314 314 319 338 348 343 334 335 338 341 350 357 1 4 2 5 5 7 9 2 329 356 311 336 2 30 28 31 40 52 66 62 44 35
207 213 216 219 223 231 230 238 263 298 303 322 333 335 336 331 326 322 324 324 340 347 353 351 357 360 356 2 11 31 353 330 336 342 355 19 17 27 30 44 22 33 40
208 212 216 221 224 220 222 237 262 287 304 313 322 325 329 329 325 320 317 311 310 324 337 345 338 340 343 349 359 10 342 318 349 327 329 347 1 9 6 4 285 1 22
200 202 206 203 201 208 221 242 259 275 291 304 315 319 327 334 336 330 322 316 303 297 306 327 337 331 327 325 329 336 328 317 297 290 307 329 341 348 358 335 248 70 14
170 173 172 173 179 204 227 242 256 279 298 307 317 324 332 335 339 338 326 319 312 302 293 297 305 302 293 299 299 302 294 296 298 295 301 315 315 324 339 52 113 83 45
Height
824 826 828 829 831 832 833 833 833 834 834 835 835 835 835 835 835 834 834 833 833 832 831 830 829 828 827 826 824 823 822 822 821 820 819 819 818 818 817 816 816 815 814
821 826 828 830 832 833 834 834 835 835 836 836 836 837 837 837 836 836 835 835 834 833 832 831 830 830 828 827 826 825 823 822 821 820 820 819 818 818 817 816 816 815 815
822 826 828 830 833 834 836 836 836 837 837 838 838 838 838 838 837 837 836 836 835 834 833 832 831 830 829 828 827 826 824 823 822 821 820 819 818 817 817 816 816 815 815
824 827 829 831 833 835 837 837 838 839 839 839 839 839 839 839 838 838 837 836 835 834 833 832 831 830 829 828 827 825 824 823 822 821 820 819 818 817 816 816 815 815 814
826 829 831 833 835 836 838 839 839 840 840 840 841 840 840 839 838 838 837 836 835 835 833 832 831 830 828 827 826 824 823 822 821 820 819 818 817 816 816 815 814 814 813
828 832 834 835 836 838 839 840 840 841 841 841 841 841 840 839 839 838 837 837 836 834 833 832 831 829 828 826 825 823 821 820 819 818 818 817 816 815 814 814 813 812 812
830 833 835 837 838 839 840 841 842 842 842 842 841 841 840 840 839 838 837 836 835 834 833 831 830 828 826 825 823 822 820 819 818 816 816 815 814 814 813 811 811 810 810
829 834 837 839 840 841 842 843 843 843 842 842 842 841 840 840 839 838 837 836 835 834 832 831 829 827 826 824 822 820 818 817 815 814 813 813 812 811 810 808 807 807 808
831 834 837 840 841 842 844 844 844 843 843 843 842 842 841 840 839 838 837 836 834 833 831 830 828 826 824 822 820 818 816 815 813 811 810 810 809 807 806 806 806 805 805
833 835 838 840 841 843 844 845 844 844 844 843 843 842 841 840 839 838 837 835 834 832 830 829 827 825 823 821 819 817 815 813 811 809 808 807 807 806 804 803 803 802 802
835 836 838 840 841 843 844 844 845 845 844 844 843 842 841 840 839 838 836 835 833 831 829 827 826 824 821 819 817 814 812 811 809 808 807 805 804 804 803 802 801 800 799
835 837 839 840 841 843 844 844 844 845 845 844 843 842 841 840 839 838 836 834 832 830 828 826 825 822 820 817 815 813 810 808 807 806 805 804 803 802 801 800 799 799 798
834 837 840 840 842 843 843 844 845 845 845 844 843 843 841 840 839 838 835 834 831 829 828 825 823 821 818 816 813 811 809 807 806 804 803 802 801 801 800 799 798 798 798
834 837 839 841 842 843 843 844 845 845 845 844 843 843 841 840 839 837 835 833 831 829 827 825 823 821 819 816 813 810 808 806 804 802 801 800 800 799 798 798 797 796 797
834 837 839 841 842 843 843 844 844 844 844 844 843 842 841 840 838 837 835 833 831 829 827 825 823 821 818 816 813 810 807 805 803 802 800 799 798 797 797 796 796 795 795
833 836 839 841 842 843 843 844 844 844 844 843 842 842 841 839 838 837 835 833 831 829 827 825 823 820 818 815 812 809 806 804 803 801 800 799 798 797 796 796 795 795 794
832 836 838 840 841 842 843 843 843 843 843 843 842 842 841 839 838 837 834 832 830 829 827 825 823 820 817 814 810 807 805 804 803 802 801 799 798 797 796 795 795 796 795
832 834 837 838 840 841 842 843 843 843 843 843 842 842 840 840 839 837 834 832 830 829 827 825 823 820 817 812 808 805 803 803 803 803 802 800 799 797 796 796 795 795 796
830 833 835 837 839 841 842 842 842 842 843 843 842 841 840 840 839 836 834 832 830 828 827 825 823 820 816 812 808 806 804 804 804 804 803 802 799 798 797 796 797 796 796
830 833 835 837 839 840 841 842 842 842 841 842 842 841 840 840 838 836 834 832 830 828 826 825 823 821 818 814 810 808 806 806 805 805 804 803 800 799 798 798 797 797 797
829 832 834 836 839 840 841 841 841 841 841 841 841 840 839 839 838 836 834 832 830 828 827 826 824 822 818 816 812 809 808 807 806 806 806 804 802 800 799 799 799 799 798
827 830 833 836 838 840 840 841 841 840 840 840 839 839 838 837 836 834 833 831 830 828 827 826 825 823 821 820 818 815 813 809 807 807 806 805 804 802 800 800 800 800 799
826 829 832 835 837 838 839 839 839 839 839 838 838 838 837 835 834 832 831 830 828 827 826 826 825 824 822 821 820 819 819 819 812 808 807 806 805 803 802 801 800 800 800
826 829 831 833 835 837 837 838 838 838 837 837 836 836 834 833 831 830 828 827 827 826 826 825 824 824 823 821 821 820 821 819 818 815 808 806 805 804 802 801 800 800 800
825 827 829 832 834 835 836 836 836 836 835 835 835 833 832 831 829 828 826 825 825 824 824 823 822 822 822 822 821 820 819 818 817 816 812 808 804 804 803 799 799 800 800
824 826 828 830 832 834 835 835 835 834 834 834 833 832 830 828 827 826 825 824 823 822 822 821 820 820 819 819 820 819 819 818 817 815 813 811 810 805 803 801 800 800 800